TimeCST,TemperatureF,Dew PointF,Humidity,Sea Level PressureIn,VisibilityMPH,Wind Direction,Wind SpeedMPH,Gust SpeedMPH,PrecipitationIn,Events,Conditions,WindDirDegrees,DateUTC
12:15 AM,33.8,33.8,100,30.09,3.0,WNW,3.5,-,N/A,,Overcast,300,2013-01-01 06:15:00
12:35 AM,33.8,33.8,100,30.09,3.0,West,3.5,-,N/A,,Overcast,280,2013-01-01 06:35:00
12:55 AM,33.8,33.8,100,30.10,4.0,West,3.5,-,N/A,,Overcast,270,2013-01-01 06:55:00
1:15 AM,33.8,33.8,100,30.09,2.5,WNW,3.5,-,N/A,Snow,Light Snow,300,2013-01-01 07:15:00
1:35 AM,33.8,33.8,100,30.09,2.5,NW,3.5,-,N/A,,Light Drizzle,310,2013-01-01 07:35:00
1:55 AM,34.0,33.8,99,30.09,2.5,WNW,3.5,-,N/A,Rain,Light Rain,300,2013-01-01 07:55:00
2:15 AM,34.0,33.8,99,30.11,3.0,WNW,6.9,-,N/A,,Overcast,300,2013-01-01 08:15:00
2:35 AM,33.1,32.9,99,30.10,4.0,North,6.9,-,N/A,,Overcast,350,2013-01-01 08:35:00
2:55 AM,32.2,32.0,99,30.10,3.0,NNW,9.2,-,N/A,,Overcast,330,2013-01-01 08:55:00
3:15 AM,32.0,31.5,98,30.12,4.0,NW,8.1,-,N/A,,Overcast,310,2013-01-01 09:15:00
3:35 AM,31.6,30.2,94,30.11,5.0,NW,10.4,-,N/A,,Overcast,320,2013-01-01 09:35:00
3:55 AM,30.7,28.6,92,30.12,7.0,NW,9.2,-,N/A,,Overcast,320,2013-01-01 09:55:00
4:15 AM,30.2,28.0,92,30.13,7.0,NW,8.1,-,N/A,,Overcast,320,2013-01-01 10:15:00
4:35 AM,29.3,27.5,93,30.13,7.0,NW,6.9,-,N/A,,Overcast,310,2013-01-01 10:35:00
4:55 AM,29.3,26.6,90,30.13,7.0,NW,6.9,-,N/A,,Overcast,320,2013-01-01 10:55:00
5:15 AM,28.9,26.1,89,30.14,7.0,NW,8.1,-,N/A,,Overcast,320,2013-01-01 11:15:00
5:35 AM,28.6,25.3,88,30.14,10.0,NW,6.9,-,N/A,,Overcast,320,2013-01-01 11:35:00
5:55 AM,28.4,25.2,88,30.14,10.0,NW,4.6,-,N/A,,Overcast,320,2013-01-01 11:55:00
6:15 AM,28.0,25.7,91,30.15,7.0,NW,5.8,-,N/A,,Overcast,310,2013-01-01 12:15:00
6:35 AM,27.5,25.2,91,30.15,7.0,WNW,5.8,-,N/A,,Overcast,300,2013-01-01 12:35:00
6:55 AM,27.1,24.4,90,30.14,7.0,NW,8.1,-,N/A,,Overcast,320,2013-01-01 12:55:00
7:15 AM,26.6,24.3,91,30.11,7.0,NNW,6.9,-,N/A,,Overcast,340,2013-01-01 13:15:00
7:35 AM,26.6,23.5,88,30.15,7.0,NNW,8.1,-,N/A,,Mostly Cloudy,330,2013-01-01 13:35:00
7:55 AM,26.6,23.5,88,30.15,7.0,NNW,6.9,-,N/A,,Mostly Cloudy,330,2013-01-01 13:55:00
8:15 AM,26.6,23.5,88,30.16,5.0,NW,8.1,-,N/A,,Overcast,320,2013-01-01 14:15:00
8:35 AM,27.3,23.9,87,30.19,5.0,NW,9.2,-,N/A,,Overcast,310,2013-01-01 14:35:00
8:55 AM,27.3,23.5,86,30.19,5.0,NW,10.4,-,N/A,,Overcast,320,2013-01-01 14:55:00
9:15 AM,27.3,23.7,86,30.19,4.0,NNW,6.9,-,N/A,,Overcast,330,2013-01-01 15:15:00
9:35 AM,27.5,23.9,86,30.19,4.0,NNW,8.1,-,N/A,,Overcast,340,2013-01-01 15:35:00
9:55 AM,27.5,23.9,86,30.19,4.0,NNW,10.4,-,N/A,,Overcast,340,2013-01-01 15:55:00
10:15 AM,28.2,24.3,85,30.20,4.0,NNW,8.1,-,N/A,,Overcast,340,2013-01-01 16:15:00
10:35 AM,28.2,23.0,81,30.20,4.0,NNW,6.9,-,N/A,,Haze,340,2013-01-01 16:35:00
10:55 AM,28.4,23.4,81,30.15,4.0,North,11.5,-,N/A,,Haze,350,2013-01-01 16:55:00
11:15 AM,28.4,23.0,80,30.16,5.0,NNW,6.9,-,N/A,,Haze,340,2013-01-01 17:15:00
11:35 AM,28.8,23.0,79,30.17,5.0,NW,6.9,-,N/A,,Haze,320,2013-01-01 17:35:00
11:55 AM,28.8,22.8,78,30.17,5.0,NNW,8.1,-,N/A,,Haze,340,2013-01-01 17:55:00
12:15 PM,28.6,22.5,78,30.17,5.0,NW,6.9,-,N/A,,Haze,310,2013-01-01 18:15:00
12:35 PM,28.9,22.1,76,30.18,7.0,NW,8.1,-,N/A,,Scattered Clouds,320,2013-01-01 18:35:00
12:55 PM,28.8,22.1,76,30.18,7.0,WNW,8.1,-,N/A,,Mostly Cloudy,290,2013-01-01 18:55:00
1:15 PM,27.9,21.4,77,30.18,7.0,West,8.1,-,N/A,,Overcast,280,2013-01-01 19:15:00
1:35 PM,27.7,21.2,77,30.16,7.0,WNW,8.1,-,N/A,,Overcast,300,2013-01-01 19:35:00
1:55 PM,27.5,21.0,77,30.15,7.0,WNW,6.9,-,N/A,,Overcast,300,2013-01-01 19:55:00
2:15 PM,27.5,20.5,75,30.16,7.0,NW,8.1,-,N/A,,Overcast,310,2013-01-01 20:15:00
2:35 PM,27.3,20.5,75,30.16,10.0,NW,8.1,-,N/A,,Overcast,310,2013-01-01 20:35:00
2:55 PM,27.1,20.7,77,30.16,10.0,WNW,8.1,-,N/A,,Overcast,300,2013-01-01 20:55:00
3:15 PM,27.0,20.5,77,30.17,10.0,NW,5.8,-,N/A,,Overcast,310,2013-01-01 21:15:00
3:35 PM,26.6,20.1,77,30.17,10.0,WNW,5.8,-,N/A,,Overcast,300,2013-01-01 21:35:00
3:55 PM,26.6,20.3,77,30.18,10.0,WNW,6.9,-,N/A,,Overcast,300,2013-01-01 21:55:00
4:15 PM,26.4,20.5,78,30.17,10.0,NW,5.8,-,N/A,,Overcast,310,2013-01-01 22:15:00
4:35 PM,26.2,20.3,78,30.18,10.0,WNW,9.2,-,N/A,,Overcast,300,2013-01-01 22:35:00
4:55 PM,26.1,19.9,78,30.18,10.0,NW,9.2,-,N/A,,Overcast,310,2013-01-01 22:55:00
5:15 PM,25.9,19.4,76,30.18,10.0,NW,11.5,-,N/A,,Overcast,310,2013-01-01 23:15:00
5:35 PM,25.7,19.2,76,30.18,10.0,WNW,8.1,-,N/A,,Overcast,300,2013-01-01 23:35:00
5:55 PM,25.5,19.0,76,30.20,10.0,NW,9.2,-,N/A,,Overcast,310,2013-01-01 23:55:00
6:15 PM,25.5,19.2,77,30.22,10.0,WNW,9.2,-,N/A,,Overcast,300,2013-01-02 00:15:00
6:35 PM,25.3,19.0,77,30.21,10.0,WNW,9.2,-,N/A,,Overcast,300,2013-01-02 00:35:00
6:55 PM,25.2,19.0,78,30.23,10.0,WNW,9.2,-,N/A,,Overcast,300,2013-01-02 00:55:00
7:15 PM,24.8,18.9,78,30.22,10.0,WNW,8.1,-,N/A,,Overcast,300,2013-01-02 01:15:00
7:35 PM,24.3,18.5,79,30.23,10.0,WNW,8.1,-,N/A,,Overcast,300,2013-01-02 01:35:00
7:55 PM,23.4,17.2,77,30.23,10.0,WNW,9.2,-,N/A,,Mostly Cloudy,300,2013-01-02 01:55:00
8:15 PM,22.5,16.5,78,30.23,10.0,WNW,9.2,-,N/A,,Scattered Clouds,300,2013-01-02 02:15:00
8:35 PM,21.7,15.8,78,30.24,10.0,WNW,8.1,-,N/A,,Scattered Clouds,300,2013-01-02 02:35:00
8:55 PM,21.0,14.9,77,30.23,10.0,WNW,6.9,-,N/A,,Clear,300,2013-01-02 02:55:00
9:15 PM,20.3,14.0,77,30.23,10.0,WNW,4.6,-,N/A,,Clear,300,2013-01-02 03:15:00
9:35 PM,19.9,13.3,75,30.24,10.0,WNW,5.8,-,N/A,,Clear,300,2013-01-02 03:35:00
9:55 PM,19.4,12.9,76,30.24,10.0,WNW,4.6,-,N/A,,Clear,300,2013-01-02 03:55:00
10:15 PM,19.0,12.2,75,30.23,10.0,WNW,5.8,-,N/A,,Clear,300,2013-01-02 04:15:00
10:35 PM,19.0,11.8,74,30.25,10.0,WNW,5.8,-,N/A,,Clear,300,2013-01-02 04:35:00
10:55 PM,18.3,11.7,75,30.24,10.0,WNW,3.5,-,N/A,,Clear,300,2013-01-02 04:55:00
11:15 PM,17.4,11.1,76,30.24,10.0,Calm,Calm,-,N/A,,Clear,0,2013-01-02 05:15:00
11:35 PM,17.6,10.9,75,30.24,10.0,WNW,3.5,-,N/A,,Clear,300,2013-01-02 05:35:00
11:55 PM,17.2,10.9,76,30.24,10.0,WNW,4.6,-,N/A,,Clear,290,2013-01-02 05:55:00